{"data":{"norad_id":58601,"intl_designator":"2023-200N","name":"STARLINK-31074","alt_names":[],"object_type":"PAYLOAD","status":"ACTIVE","operator":null,"country":"US","launch_date":"2023-12-19","launch_site_code":"AFETR","launch_vehicle":null,"mission":null,"orbit_class":"UNKNOWN","rcs_meters":null,"size_class":null,"mass_kg":null,"dimensions":null,"purposes":["comms"],"wikipedia_slug":null,"has_3d_model":false,"image_url":null,"decayed_at":null,"tle_current":{"epoch":"2026-05-24T22:21:36.029664Z","epoch_age_seconds":77564,"freshness":"FRESH","line1":"1 58601U 23200N   26144.93166701 -.00000731  00000+0 -17043-4 0  9998","line2":"2 58601  43.0036  98.0563 0001843 296.3365  63.7297 15.27563461135271","mean_motion":15.27563461,"eccentricity":0.0001843,"inclination_deg":43.0036,"raan_deg":98.0563,"arg_perigee_deg":296.3365,"mean_anomaly_deg":63.7297,"bstar":-1.7043e-5,"rev_number":13527,"period_min":94.267769344085,"perigee_km":481.83409447755,"apogee_km":484.36314592716,"semimajor_km":6861.2356202024,"source":"CELESTRAK","updated_at":"2026-05-25T13:38:18.701064Z"}}}